Location: ?????????
(54.7630°N, 39.4991°E)
Time: 02:33:24
(UTC+00:00)

Cosmos 968 Rocket - Pass Details

Date: 14 April 2026
Orbit: 735 x 766 km, 74.0° (Epoch: 20 May)

Event Time Altitude Azimuth Distance (km) Brightness Sun altitude
Rises 22:54:17 0° 328° (NNW) 3,217 7.2 -22.7°
Reaches altitude 10° 22:56:49 10° 319° (NW) 2,293 6.2 -22.6°
Enters shadow 23:01:04 33° 266° (W) 1,257 4.3 -22.3°
